LDE504 SABE-SAZM

Flight info

Callsign LDE504
Flight time 0h 37m
Altitude 33000
Route PTA8 GBE UW29 VOTRA VOTRA2U
Aircraft B737/M-SDE2E3FGHIRWXY/LB1

Departure

Time 2026-05-07 15:30
Airport Aeroparque Jorge Newbery (SABE)

Arrival

Time 2026-05-07 16:08
Airport Ástor Piazzola International Airport (SAZM)
Time Latitude Longitude Altitude Speed Heading
2026-05-07 15:12 -34.56558 -58.40772 24 ft 0 kts 213°
2026-05-07 15:27 -34.56560 -58.40775 24 ft 3 kts 232°
2026-05-07 15:27 -34.56558 -58.40802 24 ft 3 kts 287°
2026-05-07 15:27 -34.56546 -58.40826 26 ft 3 kts 303°
2026-05-07 15:28 -34.56529 -58.40845 28 ft 3 kts 334°
2026-05-07 15:28 -34.56508 -58.40838 28 ft 3 kts 37°
2026-05-07 15:28 -34.56494 -58.40818 28 ft 3 kts 52°
2026-05-07 15:28 -34.56479 -58.40785 26 ft 5 kts 63°
2026-05-07 15:29 -34.56463 -58.40747 24 ft 5 kts 65°
2026-05-07 15:29 -34.56448 -58.40699 28 ft 7 kts 69°
2026-05-07 15:29 -34.56426 -58.40683 24 ft 4 kts 330°
2026-05-07 15:29 -34.56416 -58.40701 24 ft 0 kts 303°
2026-05-07 15:30 -34.56301 -58.40904 27 ft 70 kts 304°
2026-05-07 15:30 -34.55880 -58.41660 23 ft 142 kts 304°
2026-05-07 15:30 -34.55214 -58.42831 179 ft 186 kts 303°
2026-05-07 15:30 -34.54530 -58.44065 1379 ft 175 kts 299°
2026-05-07 15:31 -34.53471 -58.45080 1749 ft 223 kts 338°
2026-05-07 15:31 -34.51839 -58.45142 2219 ft 254 kts 13°
2026-05-07 15:31 -34.50258 -58.44082 2978 ft 268 kts 44°
2026-05-07 15:31 -34.49257 -58.42110 3717 ft 286 kts 81°
2026-05-07 15:32 -34.49375 -58.39776 5053 ft 282 kts 113°
2026-05-07 15:32 -34.50120 -58.37652 6632 ft 272 kts 116°
2026-05-07 15:32 -34.50889 -58.35473 7485 ft 290 kts 112°
2026-05-07 15:32 -34.51559 -58.33163 8527 ft 292 kts 109°
2026-05-07 15:33 -34.52162 -58.30758 9391 ft 300 kts 107°
2026-05-07 15:33 -34.52749 -58.28302 10180 ft 310 kts 106°
2026-05-07 15:33 -34.53451 -58.25734 10526 ft 335 kts 118°
2026-05-07 15:33 -34.54966 -58.23466 10743 ft 359 kts 139°
2026-05-07 15:34 -34.57005 -58.21554 10927 ft 382 kts 149°
2026-05-07 15:34 -34.59315 -58.19752 11132 ft 405 kts 150°
2026-05-07 15:34 -34.61744 -58.17904 11637 ft 418 kts 150°
2026-05-07 15:34 -34.64197 -58.16034 12370 ft 424 kts 150°
2026-05-07 15:35 -34.66713 -58.14099 12972 ft 433 kts 151°
2026-05-07 15:35 -34.69270 -58.12116 13553 ft 439 kts 151°
2026-05-07 15:35 -34.71864 -58.10089 14147 ft 446 kts 150°
2026-05-07 15:35 -34.74503 -58.08018 14693 ft 454 kts 150°
2026-05-07 15:36 -34.77181 -58.05917 15259 ft 461 kts 150°
2026-05-07 15:36 -34.79897 -58.03773 15816 ft 469 kts 150°
2026-05-07 15:36 -34.82663 -58.01607 16364 ft 476 kts 150°
2026-05-07 15:36 -34.85463 -57.99403 16860 ft 483 kts 149°
2026-05-07 15:37 -34.88312 -57.97174 17352 ft 489 kts 151°
2026-05-07 15:37 -34.91377 -57.95358 17829 ft 492 kts 163°
2026-05-07 15:37 -34.94660 -57.94148 18284 ft 492 kts 173°
2026-05-07 15:37 -34.98047 -57.93458 18722 ft 494 kts 176°
2026-05-07 15:38 -35.01464 -57.92824 19168 ft 501 kts 176°
2026-05-07 15:38 -35.04932 -57.92171 19632 ft 507 kts 175°
2026-05-07 15:38 -35.08417 -57.91496 20189 ft 511 kts 176°
2026-05-07 15:38 -35.11899 -57.90834 20611 ft 516 kts 176°
2026-05-07 15:39 -35.15461 -57.90160 20985 ft 521 kts 176°
2026-05-07 15:39 -35.19092 -57.89460 21314 ft 527 kts 176°
2026-05-07 15:39 -35.22714 -57.88736 21722 ft 531 kts 175°
2026-05-07 15:39 -35.26373 -57.87992 22077 ft 535 kts 175°
2026-05-07 15:40 -35.30057 -57.87241 22413 ft 539 kts 175°
2026-05-07 15:40 -35.33780 -57.86486 22739 ft 543 kts 175°
2026-05-07 15:40 -35.37528 -57.85728 23059 ft 547 kts 176°
2026-05-07 15:40 -35.41301 -57.84968 23344 ft 551 kts 176°
2026-05-07 15:41 -35.45088 -57.84206 23624 ft 554 kts 176°
2026-05-07 15:41 -35.48903 -57.83440 23902 ft 556 kts 175°
2026-05-07 15:41 -35.52733 -57.82671 24161 ft 559 kts 175°
2026-05-07 15:41 -35.56580 -57.81896 24430 ft 562 kts 175°
2026-05-07 15:42 -35.60444 -57.81116 24768 ft 562 kts 175°
2026-05-07 15:42 -35.64304 -57.80335 25191 ft 562 kts 175°
2026-05-07 15:42 -35.68160 -57.79554 25540 ft 564 kts 175°
2026-05-07 15:42 -35.72052 -57.78766 25514 ft 567 kts 175°
2026-05-07 15:43 -35.75898 -57.77985 25495 ft 566 kts 175°
2026-05-07 15:43 -35.79780 -57.77195 25221 ft 563 kts 175°
2026-05-07 15:43 -35.83615 -57.76411 24893 ft 557 kts 175°
2026-05-07 15:43 -35.87432 -57.75632 24653 ft 555 kts 175°
2026-05-07 15:44 -35.91244 -57.74856 24624 ft 554 kts 175°
2026-05-07 15:44 -35.95049 -57.74081 24618 ft 553 kts 175°
2026-05-07 15:44 -35.98855 -57.73307 24631 ft 556 kts 175°
2026-05-07 15:44 -36.02700 -57.72527 24650 ft 562 kts 175°
2026-05-07 15:45 -36.06574 -57.71739 24630 ft 566 kts 175°
2026-05-07 15:45 -36.10457 -57.70946 24620 ft 566 kts 175°
2026-05-07 15:45 -36.14340 -57.70149 24613 ft 565 kts 175°
2026-05-07 15:45 -36.18224 -57.69350 24612 ft 564 kts 175°
2026-05-07 15:46 -36.25949 -57.67760 24629 ft 563 kts 175°
2026-05-07 15:46 -36.29810 -57.66965 24622 ft 562 kts 175°
2026-05-07 15:46 -36.33672 -57.66170 24615 ft 562 kts 175°
2026-05-07 15:47 -36.37533 -57.65375 24610 ft 561 kts 175°
2026-05-07 15:47 -36.41319 -57.64594 24414 ft 555 kts 175°
2026-05-07 15:47 -36.45081 -57.63812 23988 ft 541 kts 175°
2026-05-07 15:47 -36.48747 -57.63048 23519 ft 527 kts 176°
2026-05-07 15:48 -36.52319 -57.62303 23030 ft 514 kts 176°
2026-05-07 15:48 -36.55815 -57.61576 22479 ft 505 kts 176°
2026-05-07 15:48 -36.59245 -57.60866 21975 ft 496 kts 176°
2026-05-07 15:48 -36.62606 -57.60174 21520 ft 497 kts 176°
2026-05-07 15:49 -36.66099 -57.59461 21034 ft 506 kts 176°
2026-05-07 15:49 -36.69579 -57.58745 20512 ft 500 kts 176°
2026-05-07 15:49 -36.72957 -57.58037 20014 ft 484 kts 176°
2026-05-07 15:49 -36.76238 -57.57344 19543 ft 470 kts 176°
2026-05-07 15:50 -36.79390 -57.56680 19095 ft 460 kts 177°
2026-05-07 15:50 -36.82561 -57.56017 18649 ft 453 kts 177°
2026-05-07 15:50 -36.85614 -57.55383 18203 ft 448 kts 177°
2026-05-07 15:50 -36.88722 -57.54743 17723 ft 456 kts 177°
2026-05-07 15:51 -36.91852 -57.54096 17188 ft 453 kts 176°
2026-05-07 15:51 -36.94923 -57.53453 16681 ft 439 kts 176°
2026-05-07 15:51 -36.97885 -57.52826 16230 ft 425 kts 176°
2026-05-07 15:51 -37.00769 -57.52218 15777 ft 417 kts 175°
2026-05-07 15:52 -37.03621 -57.51620 15336 ft 412 kts 175°
2026-05-07 15:52 -37.06455 -57.51029 14913 ft 416 kts 175°
2026-05-07 15:52 -37.09349 -57.50431 14461 ft 425 kts 174°
2026-05-07 15:52 -37.12260 -57.49824 13992 ft 420 kts 174°
2026-05-07 15:53 -37.15094 -57.49225 13528 ft 406 kts 173°
2026-05-07 15:53 -37.17841 -57.48642 13050 ft 394 kts 173°
2026-05-07 15:53 -37.20490 -57.48083 12601 ft 388 kts 172°
2026-05-07 15:53 -37.23151 -57.47522 12160 ft 387 kts 172°
2026-05-07 15:54 -37.25826 -57.46960 11725 ft 396 kts 172°
2026-05-07 15:54 -37.28595 -57.46379 11276 ft 407 kts 172°
2026-05-07 15:54 -37.31373 -57.45793 11054 ft 397 kts 172°
2026-05-07 15:54 -37.34026 -57.45228 10865 ft 377 kts 172°
2026-05-07 15:55 -37.36548 -57.44690 10703 ft 359 kts 173°
2026-05-07 15:55 -37.38970 -57.44175 10553 ft 347 kts 173°
2026-05-07 15:55 -37.41304 -57.43681 10427 ft 341 kts 173°
2026-05-07 15:55 -37.43647 -57.43186 10292 ft 342 kts 173°
2026-05-07 15:56 -37.45992 -57.42692 10148 ft 338 kts 173°
2026-05-07 15:56 -37.48261 -57.42210 9997 ft 324 kts 173°
2026-05-07 15:56 -37.50440 -57.41745 9847 ft 311 kts 174°
2026-05-07 15:56 -37.52529 -57.41298 9730 ft 299 kts 174°
2026-05-07 15:57 -37.54547 -57.40864 9585 ft 288 kts 174°
2026-05-07 15:57 -37.56506 -57.40448 9295 ft 285 kts 174°
2026-05-07 15:57 -37.58460 -57.40035 8959 ft 283 kts 175°
2026-05-07 15:57 -37.60376 -57.39629 8603 ft 281 kts 175°
2026-05-07 15:58 -37.62300 -57.39222 8249 ft 279 kts 175°
2026-05-07 15:58 -37.64214 -57.38817 7895 ft 278 kts 175°
2026-05-07 15:58 -37.66120 -57.38411 7526 ft 276 kts 175°
2026-05-07 15:58 -37.68019 -57.38005 7178 ft 276 kts 175°
2026-05-07 15:59 -37.69907 -57.37604 6822 ft 275 kts 175°
2026-05-07 15:59 -37.71790 -57.37201 6462 ft 274 kts 175°
2026-05-07 15:59 -37.73668 -57.36795 6110 ft 274 kts 175°
2026-05-07 15:59 -37.75547 -57.36394 5730 ft 273 kts 175°
2026-05-07 16:00 -37.77415 -57.35994 5366 ft 272 kts 175°
2026-05-07 16:00 -37.79267 -57.35596 5012 ft 269 kts 175°
2026-05-07 16:00 -37.81105 -57.35206 4668 ft 266 kts 175°
2026-05-07 16:00 -37.82924 -57.34818 4318 ft 264 kts 174°
2026-05-07 16:01 -37.84726 -57.34432 3963 ft 261 kts 174°
2026-05-07 16:01 -37.86504 -57.34052 3631 ft 258 kts 174°
2026-05-07 16:01 -37.88264 -57.33673 3294 ft 254 kts 174°
2026-05-07 16:01 -37.89976 -57.33305 3171 ft 244 kts 174°
2026-05-07 16:02 -37.91626 -57.32950 3032 ft 237 kts 174°
2026-05-07 16:02 -37.93262 -57.32646 2663 ft 236 kts 183°
2026-05-07 16:02 -37.94816 -57.33056 2589 ft 223 kts 204°
2026-05-07 16:02 -37.96128 -57.34012 2718 ft 217 kts 215°
2026-05-07 16:03 -37.97359 -57.35103 2866 ft 213 kts 216°
2026-05-07 16:03 -37.98530 -57.36149 2936 ft 200 kts 215°
2026-05-07 16:03 -37.99605 -57.37090 2957 ft 177 kts 215°
2026-05-07 16:03 -38.00597 -57.37963 3009 ft 170 kts 215°
2026-05-07 16:04 -38.01218 -57.38574 3011 ft 165 kts 227°
2026-05-07 16:04 -38.01655 -57.39879 2704 ft 168 kts 260°
2026-05-07 16:04 -38.01474 -57.41311 2202 ft 168 kts 290°
2026-05-07 16:04 -38.00894 -57.42576 1911 ft 164 kts 296°
2026-05-07 16:05 -38.00284 -57.43786 1771 ft 161 kts 296°
2026-05-07 16:05 -37.99677 -57.44983 1721 ft 161 kts 296°
2026-05-07 16:05 -37.99073 -57.46172 1705 ft 162 kts 297°
2026-05-07 16:05 -37.98470 -57.47363 1705 ft 157 kts 296°
2026-05-07 16:06 -37.97880 -57.48528 1498 ft 156 kts 296°
2026-05-07 16:06 -37.97296 -57.49680 1282 ft 155 kts 296°
2026-05-07 16:06 -37.96709 -57.50836 1062 ft 156 kts 297°
2026-05-07 16:06 -37.96127 -57.51977 888 ft 155 kts 298°
2026-05-07 16:07 -37.95541 -57.53133 716 ft 155 kts 296°
2026-05-07 16:07 -37.94951 -57.54301 530 ft 158 kts 297°
2026-05-07 16:07 -37.94350 -57.55482 460 ft 163 kts 300°
2026-05-07 16:07 -37.93750 -57.56664 90 ft 153 kts 300°
2026-05-07 16:08 -37.93230 -57.57690 44 ft 126 kts 301°
2026-05-07 16:08 -37.92926 -57.58294 42 ft 19 kts 307°
2026-05-07 16:08 -37.92885 -57.58390 41 ft 12 kts 228°
2026-05-07 16:08 -37.92903 -57.58394 42 ft 2 kts 160°
2026-05-07 16:09 -37.92912 -57.58375 42 ft 2 kts 115°
2026-05-07 16:09 -37.92922 -57.58346 43 ft 6 kts 115°
2026-05-07 16:09 -37.92945 -57.58283 42 ft 11 kts 115°
2026-05-07 16:09 -37.92980 -57.58195 43 ft 11 kts 122°
2026-05-07 16:10 -37.93020 -57.58114 44 ft 11 kts 122°
2026-05-07 16:10 -37.93060 -57.58036 45 ft 10 kts 122°
2026-05-07 16:10 -37.93104 -57.57966 43 ft 10 kts 153°
2026-05-07 16:10 -37.93180 -57.57998 46 ft 12 kts 214°
2026-05-07 16:11 -37.93254 -57.58041 44 ft 12 kts 174°
2026-05-07 16:11 -37.93328 -57.58018 47 ft 8 kts 182°
2026-05-07 16:11 -37.93351 -57.58055 44 ft 0 kts 283°
2026-05-07 16:11 -37.93335 -57.58065 47 ft 3 kts 347°
2026-05-07 16:12 -37.93324 -57.58081 45 ft 0 kts 305°